Powrót do katalogu

AE5RB

AktywnyNaukaSSO
NORAD 66693·PAYLOAD·🇺🇸 United States

Wystrzelony Nov 28, 2025 z Vandenberg Space Force Base

Loading…

Następne Przeloty (najbliższe 24 godziny)

TLE

ŚwieżeSource: Space-Track

Epoka: Sep 14, 2026, 10:54 UTC

1 66693U 25276AD  26257.45423743  .00011085  00000-0  44937-3 0  9991
2 66693  97.4096 330.3258 0004851  66.7692 293.4056 15.24801598 44049

Śledź AE5RB w czasie rzeczywistym z AllMySat

Download on the App Store